Regional Weather Roundup
Issued by NWS

Home | Current Version | Previous Version | Graphics & Text | Print | Product List | Glossary On
Versions: 1 2 3 4 5 6 7 8 9 10 11 12 13 14 15 16 17 18 19 20 21 22 23 24 25 26 27 28 29 30 31 32 33 34 35 36 37 38 39 40 41 42 43 44 45 46 47 48 49 50
000
ASUS43 KIND 250559
RWRIN

WEATHER ROUNDUP FOR INDIANA
NATIONAL WEATHER SERVICE INDIANAPOLIS IN
200 AM EDT WED APR 25 2018

NOTE: "FAIR" INDICATES FEW OR NO CLOUDS BELOW 12,000 FEET WITH NO
SIGNIFICANT WEATHER AND/OR OBSTRUCTIONS TO VISIBILITY.

* - STATION DOES NOT REPORT WEATHER SUCH AS PRECIPITATION OR FOG.

+ - STATION NOT QUALITY CONTROLLED BY THE NATIONAL WEATHER SERVICE.
    USE DATA WITH CAUTION...ESPECIALLY DEWPOINT AND RELATIVE
    HUMIDITY OBSERVATIONS.

INZ001>003-010>013-019-020-250700-
NORTHWEST INDIANA

CITY           SKY/WX    TMP DP  RH WIND       PRES   REMARKS
KNOX *+        FAIR      43  43 100 N6        29.97S
MONTICELLO +   FAIR      47  45  95 NW5       29.96F
RENSSELAER +   FAIR      45  41  87 NW6       29.98S

$$

LMZ046-743>745-250700-
SOUTHERN LAKE MICHIGAN

STATION/POSITION TIME  TEMP    WIND        PRES    WAVE
                       AIR SEA DIR/SP/G            HT
                 (UTC) (F)     (DEG/KT/KT) (MB)    (FT)
BURNS HARBOR     0540   39     310/ 11/ 13 1016.9R
MICHIGAN CITY    0530   42     280/  7/  8   N/A

$$

INZ004-005-014>016-021>024-250700-
NORTH CENTRAL INDIANA

CITY           SKY/WX    TMP DP  RH WIND       PRES   REMARKS
GOSHEN         CLOUDY    52  51  97 NE3       29.96S FOG
6HR MIN TEMP:  52; 6HR MAX TEMP:  57; 6HR PCP: TRACE;

ROCHESTER +    CLOUDY    55  52  88 N5        29.96F
SOUTH BEND     CLOUDY    51  48  89 N7        29.98S
6HR MIN TEMP:  51; 6HR MAX TEMP:  57;

WARSAW +       CLOUDY    52  52 100 CALM      29.96S FOG

$$

INZ006>009-017-018-025>027-250700-
NORTHEAST INDIANA

CITY           SKY/WX    TMP DP  RH WIND       PRES   REMARKS
ANGOLA *+      CLOUDY    50  50 100 CALM      29.94F FOG
FORT WAYNE     CLOUDY    52  50  93 N8        29.95S FOG
6HR MIN TEMP:  52; 6HR MAX TEMP:  54; 6HR PCP: TRACE;


$$

INZ028-029-035-036-043>045-051>053-250700-
WEST CENTRAL INDIANA

CITY           SKY/WX    TMP DP  RH WIND       PRES   REMARKS
GREENCASTLE +  FAIR      52  50  93 CALM      29.96F
LAFAYETTE      FAIR      51  49  92 NW5       29.96S
6HR MIN TEMP:  51; 6HR MAX TEMP:  58;

TERRE HAUTE    FAIR      47  47 100 W5        29.96F FOG
6HR MIN TEMP:  47; 6HR MAX TEMP:  59;


$$

INZ030>032-037>040-046>048-054>057-064-065-250700-
CENTRAL INDIANA

CITY           SKY/WX    TMP DP  RH WIND       PRES   REMARKS
INDIANAPOLIS   CLOUDY    53  51  93 N8        29.95S
6HR MIN TEMP:  53; 6HR MAX TEMP:  55; 6HR PCP: TRACE;

-EAGLE CREEK   CLOUDY    54  50  86 N5        29.94S
6HR MIN TEMP:  54; 6HR MAX TEMP:  56;

KOKOMO +       CLOUDY    53  50  89 N7        29.96S
6HR MIN TEMP:  52; 6HR MAX TEMP:  55;

MT COMFORT *+  MOCLDY    50  50 100 N6        29.94F
SHELBYVILLE    CLOUDY    54  50  86 N9        29.93F
6HR MIN TEMP:  54; 6HR MAX TEMP:  56;

ZIONSVILLE +   CLOUDY    51  50  96 N6        29.96S
6HR MIN TEMP:  51; 6HR MAX TEMP:  53;


$$

INZ033-034-041-042-049-050-058-059-250700-
EAST CENTRAL INDIANA

CITY           SKY/WX    TMP DP  RH WIND       PRES   REMARKS
MUNCIE         CLOUDY    54  51  90 N9        29.94S FOG
6HR MIN TEMP:  54; 6HR MAX TEMP:  55; 6HR PCP: TRACE;

RICHMOND +     CLOUDY    50  50 100 N5        29.92F FOG

$$

INZ060-061-067>069-081>083-085>088-250700-
SOUTHWEST INDIANA

CITY           SKY/WX    TMP DP  RH WIND       PRES   REMARKS
EVANSVILLE     FAIR      54  54 100 NW6       29.97F FOG
6HR MIN TEMP:  53; 6HR MAX TEMP:  58; 6HR PCP:  0.01;

HUNTINGBURG +  CLOUDY    54  52  93 NW7       29.96S
6HR MIN TEMP:  53; 6HR MAX TEMP:  56; 6HR PCP:  0.01;


$$

INZ062-063-066-070>080-084-089>092-250700-
SOUTH CENTRAL AND SOUTHEAST INDIANA

CITY           SKY/WX    TMP DP  RH WIND       PRES   REMARKS
BLOOMINGTON    CLOUDY    54  52  93 N3        29.95S
6HR MIN TEMP:  54; 6HR MAX TEMP:  55; 6HR PCP:  0.02;

FRENCH LICK *+ CLOUDY    52 N/A N/A CALM      29.95S
SEYMOUR +      CLOUDY    55  54  94 NW6       29.94S

$$





USA.gov is the U.S. government's official web portal to all federal, state and local government web resources and services.